Litchfield, MN

3:23 AM CDT on September 22, 2017 (GMT -0500)
Litchfield Municipal

Weather History for KLJF - November, 2013

Change the Weather History Date:

Wednesday, November 20, 2013

  Actual Average Record
Temperature  
Mean Temperature 39 °F -  
Max Temperature 46 °F 35 °F 64 °F (1962)
Min Temperature 32 °F 21 °F 1 °F (1969)
Degree Days  
Heating Degree Days 26    
Moisture  
Dew Point 32 °F    
Average Humidity 70    
Maximum Humidity 100    
Minimum Humidity 53    
Precipitation  
Precipitation 0.00 in - - ()
Sea Level Pressure  
Sea Level Pressure 29.88 in    
Wind  
Wind Speed 2 mph (SE)    
Max Wind Speed 10 mph    
Max Gust Speed 18 mph    
Visibility 9 miles    
Events      
Averages and records for this station are not official NWS values.
T = Trace of Precipitation, MM = Missing Value Source: NWS Daily Summary

Daily Weather History Graph

Daily Weather History Graph

Search for Another Location

Airport or City:

Trip Planner

Search our weather history database for the weather conditions in past years. The results will help you decide how hot, cold, wet, or windy it might be!

Date:

Astronomy

Nov. 20, 2013 Rise Set
Actual Time 7:23 AM CST 4:44 PM CST
Civil Twilight 6:50 AM CST 5:16 PM CST
Nautical Twilight 6:14 AM CST 5:52 PM CST
Astronomical Twilight 5:39 AM CST 6:27 PM CST
Moon 7:27 PM CST (11/20) 9:49 AM CST (11/20)
Length of Visible Light 10h 25m
Length of Day
9h 20m
Waning Gibbous, 91% of the Moon is Illuminated
Nov 20
Waning Gibbous
Nov 25
Last Quarter
Dec 2
New
Dec 9
First Quarter
Dec 17
Full

Hourly Weather History & Observations

Time (CST) Temp. Windchill Dew Point Humidity Pressure Visibility Wind Dir Wind Speed Gust Speed Precip Events Conditions
12:12 AM 44.6 °F - 32.0 °F 61% 29.82 in 10.0 mi Calm Calm - N/A   Clear
12:33 AM 44.6 °F - 32.0 °F 61% 29.82 in 10.0 mi Calm Calm - N/A   Clear
12:53 AM 44.6 °F - 32.0 °F 61% 29.82 in 10.0 mi Calm Calm - N/A   Clear
1:12 AM 44.6 °F - 32.0 °F 61% 29.82 in 10.0 mi Calm Calm - N/A   Scattered Clouds
1:33 AM 44.6 °F - 32.0 °F 61% 29.82 in 10.0 mi Calm Calm - N/A   Mostly Cloudy
1:53 AM 44.6 °F - 32.0 °F 61% 29.81 in 10.0 mi Calm Calm - N/A   Mostly Cloudy
2:12 AM 44.6 °F - 32.0 °F 61% 29.82 in 10.0 mi Calm Calm - N/A   Overcast
2:33 AM 44.6 °F - 30.2 °F 57% 29.82 in 10.0 mi Calm Calm - N/A   Mostly Cloudy
2:53 AM 44.6 °F - 30.2 °F 57% 29.82 in 10.0 mi Calm Calm - N/A   Clear
3:12 AM 44.6 °F - 30.2 °F 57% 29.82 in 10.0 mi Calm Calm - N/A   Clear
3:33 AM 44.6 °F - 30.2 °F 57% 29.81 in 10.0 mi Calm Calm - N/A   Clear
3:53 AM 44.6 °F - 30.2 °F 57% 29.82 in 10.0 mi Calm Calm - N/A   Clear
4:12 AM 42.8 °F - 30.2 °F 61% 29.82 in 10.0 mi Calm Calm - N/A   Clear
4:33 AM 42.8 °F - 30.2 °F 61% 29.82 in 10.0 mi Calm Calm - N/A   Clear
4:53 AM 42.8 °F - 30.2 °F 61% 29.82 in 10.0 mi Calm Calm - N/A   Clear
5:13 AM 42.8 °F - 30.2 °F 61% 29.82 in 10.0 mi Calm Calm - N/A   Scattered Clouds
5:33 AM 42.8 °F - 30.2 °F 61% 29.82 in 10.0 mi Calm Calm - N/A   Mostly Cloudy
5:53 AM 42.8 °F - 30.2 °F 61% 29.82 in 10.0 mi Calm Calm - N/A   Mostly Cloudy
6:13 AM 42.8 °F - 30.2 °F 61% 29.82 in 10.0 mi Calm Calm - N/A   Scattered Clouds
6:32 AM 42.8 °F - 28.4 °F 57% 29.83 in 10.0 mi Calm Calm - N/A   Clear
6:53 AM 42.8 °F - 28.4 °F 57% 29.83 in 10.0 mi Calm Calm - N/A   Clear
7:13 AM 42.8 °F - 28.4 °F 57% 29.84 in 10.0 mi Calm Calm - N/A   Clear
7:32 AM 42.8 °F - 28.4 °F 57% 29.84 in 10.0 mi Calm Calm - N/A   Clear
7:53 AM 42.8 °F - 28.4 °F 57% 29.84 in 10.0 mi Calm Calm - N/A   Clear
8:13 AM 42.8 °F - 28.4 °F 57% 29.85 in 10.0 mi Calm Calm - N/A   Clear
8:32 AM 42.8 °F - 28.4 °F 57% 29.85 in 10.0 mi Calm Calm - N/A   Clear
8:53 AM 42.8 °F - 28.4 °F 57% 29.86 in 10.0 mi Calm Calm - N/A   Clear
9:13 AM 42.8 °F - 28.4 °F 57% 29.86 in 10.0 mi Calm Calm - N/A   Clear
9:32 AM 44.6 °F - 28.4 °F 53% 29.86 in 10.0 mi Calm Calm - N/A   Unknown
9:53 AM 44.6 °F - 30.2 °F 57% 29.87 in 10.0 mi Calm Calm - N/A   Mostly Cloudy
10:13 AM 44.6 °F 40.2 °F 30.2 °F 57% 29.87 in 10.0 mi SSE 8.1 mph 18.4 mph N/A   Overcast
10:32 AM 44.6 °F 39.7 °F 32.0 °F 61% 29.87 in 10.0 mi SSE 9.2 mph 17.3 mph N/A   Overcast
10:53 AM 46.4 °F 41.9 °F 33.8 °F 62% 29.87 in 10.0 mi SSE 9.2 mph - N/A   Overcast
11:12 AM 46.4 °F 42.4 °F 33.8 °F 62% 29.87 in 10.0 mi SSE 8.1 mph - N/A   Overcast
11:33 AM 46.4 °F 41.9 °F 33.8 °F 62% 29.87 in 10.0 mi SSE 9.2 mph - N/A   Overcast
11:53 AM 46.4 °F 41.9 °F 33.8 °F 62% 29.87 in 10.0 mi SSE 9.2 mph - N/A   Overcast
12:12 PM 46.4 °F 43.5 °F 33.8 °F 62% 29.86 in 10.0 mi SSE 5.8 mph - N/A   Overcast
12:33 PM 46.4 °F 42.4 °F 33.8 °F 62% 29.86 in 10.0 mi South 8.1 mph - N/A   Overcast
12:52 PM 46.4 °F 42.9 °F 33.8 °F 62% 29.86 in 10.0 mi SSE 6.9 mph - N/A   Overcast
1:13 PM 46.4 °F 41.9 °F 33.8 °F 62% 29.86 in 10.0 mi SSE 9.2 mph - N/A   Overcast
1:33 PM 46.4 °F 41.5 °F 33.8 °F 62% 29.86 in 10.0 mi SSE 10.4 mph 16.1 mph N/A   Mostly Cloudy
1:52 PM 44.6 °F 39.2 °F 33.8 °F 66% 29.86 in 10.0 mi SSE 10.4 mph - N/A   Overcast
2:13 PM 44.6 °F 40.2 °F 33.8 °F 66% 29.85 in 10.0 mi SSE 8.1 mph - N/A   Overcast
2:33 PM 46.4 °F 42.9 °F 33.8 °F 62% 29.85 in 10.0 mi SSE 6.9 mph - N/A   Overcast
2:52 PM 44.6 °F 40.7 °F 33.8 °F 66% 29.85 in 10.0 mi SSE 6.9 mph - N/A   Overcast
3:13 PM 44.6 °F 39.7 °F 33.8 °F 66% 29.86 in 10.0 mi SE 9.2 mph - N/A   Overcast
3:33 PM 46.4 °F 41.5 °F 33.8 °F 62% 29.86 in 10.0 mi SE 10.4 mph - N/A   Mostly Cloudy
3:52 PM 44.6 °F 39.7 °F 33.8 °F 66% 29.86 in 10.0 mi SE 9.2 mph - N/A   Scattered Clouds
4:13 PM 44.6 °F 40.7 °F 33.8 °F 66% 29.87 in 10.0 mi SE 6.9 mph - N/A   Clear
4:33 PM 42.8 °F 39.3 °F 33.8 °F 70% 29.88 in 10.0 mi SSE 5.8 mph - N/A   Unknown
4:52 PM 42.8 °F 38.6 °F 33.8 °F 70% 29.89 in 10.0 mi SE 6.9 mph - N/A   Unknown
5:13 PM 41.0 °F 37.1 °F 33.8 °F 76% 29.89 in 10.0 mi SE 5.8 mph - N/A   Clear
5:33 PM 41.0 °F 36.4 °F 33.8 °F 76% 29.90 in 10.0 mi SE 6.9 mph - N/A   Clear
5:53 PM 39.2 °F 35.0 °F 33.8 °F 81% 29.91 in 10.0 mi SE 5.8 mph - N/A   Clear
6:13 PM 39.2 °F 34.2 °F 33.8 °F 81% 29.92 in 10.0 mi SE 6.9 mph - N/A   Clear
6:33 PM 39.2 °F 35.0 °F 35.6 °F 87% 29.93 in 10.0 mi SE 5.8 mph - N/A   Clear
6:52 PM 37.4 °F 32.1 °F 33.8 °F 87% 29.93 in 10.0 mi SE 6.9 mph - N/A   Clear
7:13 PM 35.6 °F 29.9 °F 33.8 °F 93% 29.94 in 10.0 mi SE 6.9 mph - N/A   Clear
7:33 PM 33.8 °F 29.6 °F 33.8 °F 100% 29.95 in 10.0 mi SE 4.6 mph - N/A   Clear
7:52 PM 33.8 °F 28.6 °F 32.0 °F 93% 29.96 in 10.0 mi ESE 5.8 mph - N/A   Scattered Clouds
8:13 PM 33.8 °F 28.6 °F 32.0 °F 93% 29.96 in 7.0 mi ESE 5.8 mph - N/A   Clear
8:33 PM 32.0 °F 28.7 °F 32.0 °F 100% 29.96 in 7.0 mi ESE 3.5 mph - N/A   Unknown
8:53 PM 32.0 °F 26.4 °F 32.0 °F 100% 29.97 in 5.0 mi ESE 5.8 mph - N/A   Mist
9:12 PM 32.0 °F 26.4 °F 32.0 °F 100% 29.97 in 5.0 mi ESE 5.8 mph - N/A   Clear
9:33 PM 33.8 °F 29.6 °F 33.8 °F 100% 29.97 in 5.0 mi SE 4.6 mph - N/A   Clear
9:53 PM 33.8 °F 29.6 °F 33.8 °F 100% 29.98 in 5.0 mi SE 4.6 mph - N/A   Clear
10:13 PM 32.0 °F 28.7 °F 32.0 °F 100% 29.98 in 4.0 mi SE 3.5 mph - N/A   Clear
10:32 PM 33.8 °F - 33.8 °F 100% 29.99 in 4.0 mi Calm Calm - N/A   Clear
10:53 PM 33.8 °F - 33.8 °F 100% 30.01 in 3.0 mi Calm Calm - N/A   Scattered Clouds
11:13 PM 33.8 °F - 33.8 °F 100% 30.01 in 4.0 mi Calm Calm - N/A   Overcast
11:32 PM 35.6 °F - 35.6 °F 100% 30.01 in 4.0 mi Calm Calm - N/A   Overcast
11:53 PM 35.6 °F - 35.6 °F 100% 30.02 in 4.0 mi Calm Calm - N/A   Overcast